Showing default

FLOCK 4Q 7, 58318

Orbit data source: Space-Track

FLOCK 4Q 7, 58318 is a payload satellite owned by Planet (US) in SSO that was launched on Sat, 11 Nov 2023 UTC via an FALCON 9 launch vehicle from the Air Force Western Test Range (AFWTR). Payload-class satellites include a variety of spacecraft equipped with specific instruments for various scientific and technological missions. These include communications satellites like Starlink; space stations such as the ISS; scientific satellites like the Hubble; Earth observation satellites from companies like Planet Labs, Umbra, and HawkEye 360; GPS; miniature CubeSats for education and research; and military/defense satellites.

Loading next visibility...
Identifier
58318, 2023-174BQ
Orbit
SSO
Country
Flag of USUS
Related business
Manufacturer
Planet
Mission
Operational Commercial Imaging
Bus & Motor
CUBESAT 3U, Unknown motor
Mass
5.7 kg wet, 5.7 kg dry
Launch date (UTC)
2023-11-11 (3 years ago)
Launch vehicle
FALCON 9
Launch site
Air Force Western Test Range (AFWTR)
Object type
Payload
Rocket body
Debris
Shape & HBR
Box + 2 Pan, 1.0 m
Radar Cross Section
0.072 m², Medium (>0.1 m² and < 1m²)

Expand to show TLE details & history
Last TLE update: 2 days ago

TLE from 2 days ago
0 FLOCK 4Q 7
1 58318U 23174BQ  26171.22810889  .00031557  00000-0  45800-3 0  9998
2 58318  97.3904 262.8192 0006546 129.1965 230.9872 15.55746600146228
Epoch: 2026-06-20T05:28Z
TLE epoch observation values (Epoch: 2026-06-20T05:28:28.608Z)
Latitude
0.00003°
Longitude
-87.74575°
Altitude
405.918 km
Speed
7.666 km/s
True Right ascension
17h 31m 16s
True Declination
0° 00' 00"
Sunlit
Object was in full shadow at epoch
Visualization orbit readout
Latitude
Unknown
Longitude
Unknown
Altitude
Unknown
Speed
Unknown
Apparent Right ascension
Unknown
Apparent Declination
Unknown
Sunlit
N/A
Visualization observer readout
Local Sidereal Time
21:55:05
Azimuth
Unknown
Elevation
Unknown
Doppler factor
Unknown
Orbital elements
Apogee altitude
401.336 km
Perigee altitude
392.466 km
Semi-major axis
6,775.038 km
Eccentricity
0.00065
Inclination
97.3904°
RAAN
262.8192°
Arg. of periapsis
129.1965°
True anomaly
230.92895°
Mean anomaly
230.9872°
Eccentric anomaly
230.95807°
Mean motion
3.89202 °/min
Orbital period
92.5 mins
BSTAR
0.000458
Loading maneuver chart data...
Computing Atmospheric mass density...

Documentation

Showing up to 5 results
|